Weather in Vysoke

Ukraine / Kyiv Region     49°14′56″N   29°48′54″E
temp.,
°C
wind,
m/s
gust,
m/s
humid.,
%
clouds,
%
prec.,
mm/h
press.,
hPa
HPBL,
m
7 march, sun
sun723:00−5w36830 0.0 1027122
02:00−5wsw48850 0.0 1027196
05:00−5wsw512850 0.0 1025297
08:00−3wsw714820 0.0 1022483
11:000wsw9147143 0.0 10201219
14:00+2wsw8146755 0.0 10181322
17:00+1wsw6136960 0.0 1016920
20:00−1wsw6157530 0.0 1015488
8 march, mon
mon823:00−1wsw6157377 0.0 1015558
02:00−1w6147469 0.0 1013606
05:00−2w5128050 0.0 1012621
08:00−1wnw5108669 0.0 1012730
11:00+1wnw688298 0.1 1013884
14:00+2wnw7105999 0.2 10131627
17:000wnw596185 0.1 10141082
20:00−2nw5107275 0.1 1016978
9 march, tue
tue923:00−3nw49650 0.0 1018723
02:00−3wnw37700 0.0 1018605
05:00−3wnw48720 0.0 1019669
08:00−3nw57681 0.0 10201066
11:00−2nw4561100 0.1 10221178
14:00−1nnw4451100 0.1 10221296
17:00−1n335487 0.0 10221214
20:00−2ene126187 0.0 102456
10 march, wed
wed1023:00−3se116422 0.0 102591
02:00−3se347358 0.0 1025305
05:00−4se467989 0.0 1024312
08:00−4se467294 0.0 1024394
11:00−2se4557100 0.0 1024640
14:00−2ese4452100 0.0 1024805
17:00−2ese345573 0.0 1023731
20:00−3ese246138 0.0 1025411
11 march, thu
thu1123:00−3ese23590 0.0 1026267
02:00−4se23620 0.0 1026188
05:00−5sse12620 0.0 102665
08:00−4sse23570 0.0 1026197
11:00−1s33440 0.0 1026741
14:00+1s44430 0.0 10251351
17:000s465156 0.0 1024910
20:00−1sse6105578 0.0 1024465